Location: Austin
(30.3000°N, 97.7500°W)
Time: 12:11:14
(UTC-05:00)

USA 186 - Pass Details

Date: 26 May 2023
Orbit: 393 x 432 km, 97.1° (Epoch: 19 April)

Event Time Altitude Azimuth Distance (km) Brightness Sun altitude
Exits shadow 21:04:37 - 155° (SSE) 1,709 4.3 -8.4°
Reaches altitude 10° 21:05:07 10° 153° (SSE) 1,495 4.0 -8.5°
Maximum altitude 21:08:14 50° 77° (ENE) 539 2.0 -9.1°
Drops below altitude 10° 21:11:19 10° 1° (N) 1,487 5.0 -9.6°
Sets 21:13:20 0° 356° (N) 2,346 6.1 -10.0°
